Find Starlink 31108

NORAD ID: 58738 Int'l Des: 2024-005 Owner: SPXS Country: US Constellation: starlink operational
LEOCIRCULAR

リアルタイム位置

3D地球を読み込み中...

Starlink 31108について

説明を読み込み中...

次回通過

Passes for default location (London). Set your location on the main map for personalized predictions.

高度履歴

Loading altitude history...

軌道要素

1 58738U 24005L 26124.84527134 .00001844 00000-0 76540-4 0 9994
2 58738 43.0054 262.4616 0001528 260.4978 99.5701 15.27574218129025
Epoch: May 4, 2026 • Age: 26 hours

現在のステータス

高度 493.3 km
速度 7.62 km/s
衛星直下点 -38.04°S, 67.86°W
打ち上げ日 Jan 7, 2024
運用期間 2.3 years
タイプ internet

技術仕様

分類 Payload
質量 730.00 kg
乾燥質量 700.00 kg
総質量 730.00 kg
長さ 0.30 m
直径 4.10 m
スパン 29.00 m
形状 Box + pan
製造者 SPXS
バスタイプ Starlink V2M
フェーズステータス In Orbit
所有者/国 SPXS/US

Most Searched